This is the latest recevied weather packets stored in our database for station/object W4KUS-10. If no packets are shown the sender has not sent any weather packets the latest 10 day(s).
| Time | Temp. | Humidity | Pressure | Rain* | Wind** | Luminosity | Snow |
|---|---|---|---|---|---|---|---|
| 1778140540 | 21.67° C | 89% | 1010.5 hPa | 0 mm | - | - | - |
| 1778140240 | 22.22° C | 89% | 1010.3 hPa | 0 mm | - | - | - |
| 1778139940 | 22.22° C | 88% | 1010.1 hPa | 0 mm | - | - | - |
| 1778139640 | 22.22° C | 88% | 1010.3 hPa | 0 mm | - | - | - |
| 1778139340 | 22.22° C | 88% | 1010.8 hPa | 0 mm | - | - | - |
| 1778139040 | 22.22° C | 88% | 1011.3 hPa | 0 mm | - | - | - |
| 1778138740 | 22.22° C | 88% | 1011.1 hPa | 0 mm | - | - | - |
| 1778138440 | 22.22° C | 88% | 1011.1 hPa | 0 mm | - | - | - |
| 1778138140 | 22.22° C | 88% | 1011.4 hPa | 0 mm | - | - | - |
| 1778137840 | 22.22° C | 87% | 1011.3 hPa | 0 mm | - | - | - |
| 1778137540 | 22.22° C | 87% | 1011 hPa | 0 mm | - | - | - |
| 1778137240 | 22.78° C | 87% | 1011.5 hPa | 0.25 mm | - | - | - |
| 1778136940 | 22.78° C | 87% | 1011.8 hPa | 1.02 mm | - | - | - |
| 1778136640 | 22.78° C | 86% | 1011.9 hPa | 2.03 mm | - | - | - |
| 1778136340 | 22.78° C | 84% | 1011.7 hPa | 1.78 mm | - | - | - |
| 1778136040 | 23.33° C | 84% | 1011.6 hPa | 1.02 mm | - | - | - |
| 1778135740 | 23.33° C | 83% | 1011.4 hPa | 0 mm | - | - | - |
| 1778135440 | 23.33° C | 82% | 1011.8 hPa | 0 mm | - | - | - |
| 1778135140 | 23.33° C | 82% | 1012.1 hPa | 0 mm | - | - | - |
| 1778134840 | 23.89° C | 82% | 1012.6 hPa | 0 mm | - | - | - |
| 1778134540 | 23.89° C | 81% | 1013 hPa | 0 mm | - | - | - |
| 1778134240 | 23.89° C | 81% | 1013.1 hPa | 0 mm | - | - | - |
| 1778133940 | 23.89° C | 80% | 1013.1 hPa | 0 mm | - | - | - |
| 1778133640 | 23.89° C | 80% | 1013.1 hPa | 0 mm | - | - | - |
| 1778133340 | 23.89° C | 80% | 1012.9 hPa | 0 mm | - | - | - |
* Rain latest hour (hover to see other rain measurements)
** Current wind speed in m/s (hover to see current wind gust speed)